Погода Лодейное Поле

Погода Лодейное Поле : погода сейчас, прогноз погоды и архив. Всё, что Вы хотите узнать о погоде Лодейное Поле!

Хотите узнать прогноз погоды Лодейное Поле? Тогда Вам сюда: Погода Лодейное Поле

Поиск расширенной информации на нашем сайте:

Другие новости

Новости СМИ2

Главная страница сайта

Новости сайта

03.07.2017

Напоминаем, что на нашем специализированном сайте Метеоцентр.Азия вы можете получить высокодетализированные автоматические прогнозы погоды по пунктам России, СНГ и мира в авиационном формате (включающие направление и скорость ветра, видимость, явления погоды, количество и форму облачности, нижнюю и верхнюю границу облачности).


Погода Лодейное Поле - сегодня

Время (UTC), дата Ветер
(°,м/с) 
Видим.   Явления Облачность Т
(°С)
Тd
(°С)
f(%) Тe
(°С)
Pmin
(гПа)
dP
(гПа)
Po
(мм)
O2
(г/м3)
Тmin Tmax R s Состояние
почвы
03 11.02.18 130 (ЮВ) 4000 м  слаб. снег  10/10 450 м 
[Sc]
-5.7 -6.7 93 -5  1019.3  -0.5  762  314  -5.7    0.0     
03 12.02.18 140 (ЮВ) 10 км  слаб. снег  10/10 450 м 
[Sc]
-2.8 -4.7 87 -4  1016.8  760  310  -3.8    0.0     
09 12.02.18 140 (ЮВ) 4000 м  слаб. снег  10/0 средняя 
[As trans]
-1.9 -4.3 84 -1  1018.1  0.9  761  309           
21 12.02.18 150 (ЮВ) 10 км    9/5 600 м средняя 
[Sc|Ac trans]
-2.4 -4.1 88 -3  1020.3  0.8  763  311           
00 13.02.18 150 (ЮВ) 10 км    10/0 средняя 
[Ac As]
-2.8 -4.6 87 -2  1020.7  0.4  763  311           
09 13.02.18 140 (ЮВ) 10 км    8/0 средняя 
[Ac trans]
-1.9 -6 74 -3  1022.6  765  311           
12 13.02.18 150 (ЮВ) 10 км    9/0 верхняя 
[Cs]
-0.5 -8.1 56 -1  1022.6  765  310           
15 13.02.18 140 (ЮВ) 10 км    3/0 верхняя 
[Ci sp]
-3.4 -8.3 69 -3  1023.2  0.5  765  313           
21 13.02.18 150 (ЮВ) 10 км    ясно 
-7.5 -9.6 85 -7  1025.9  1.1  767  319           
00 14.02.18 150 (ЮВ) 10 км    ясно 
-9.9 -11.1 91 -10  1026.6  0.7  768  322           
09 14.02.18 170 (Ю) 10 км    4/0 верхняя 
[Ci sp]
-7.1 -10.5 77 -9  1030.3  1.3  770  320           
12 14.02.18 190 (Ю) 10 км    3/0 верхняя 
[Ci sp]
-3.7 -10 62 -5  1030.5  0.3  771  316           
15 14.02.18 тихо ()   10 км    3/0 верхняя 
[Ci sp]
-11.5 -12.9 89 -12  1031.3  0.7  771  326           
18 14.02.18 040 (СВ) 10 км    ясно 
-16.3 -17.4 91 -16  1032.5  1.1  772  332    -3       
21 14.02.18 тихо ()   10 км    ясно 
-16.7 -18.1 89 -17  1033.2  0.7  773  333           
00 15.02.18 тихо ()   10 км    ясно 
-19.1 -20.8 86 -19  1033.9  0.7  773  337           
03 15.02.18 тихо ()   10 км    ясно 
-20.9 -22.9 84 -21  1033.9  0.1  773  339  -20.9         
09 15.02.18 030 (СВ) 10 км    8/0 верхняя 
[Ci sp]
-10.5 -13 82 -10  1034.6  0.4  774  325           
12 15.02.18 130 (ЮВ) 10 км    5/0 верхняя 
[Ci sp]
-5 -10.3 66 -5  1033.8  -0.8  773  318           
15 15.02.18 тихо ()   10 км    3/0 верхняя 
[Ci sp]
-12.9 -14.2 90 -13  1033.1  -0.8  772  328           
18 15.02.18 тихо ()   10 км    ясно 
-17.3 -18.8 88 -17  1032.6  -0.5  772  334    -5       
21 15.02.18 тихо ()   10 км    ясно 
-18.8 -20.6 86 -19  1031.7  -0.9  771  335           
00 16.02.18 тихо ()   10 км    10/0 средняя 
[As trans]
-14.8 -16.3 88 -15  1030.6  -1  771  330           
09 16.02.18 170 (Ю) 2000 м  снег  10/0 средняя 
[As op]
-6.5 -8.2 88 -6  1027.2  -0.5  768  318           
09 17.02.18 060 (СВ) 4000 м  слаб. снег  10/0 средняя 
[As op]
-5 -6.6 89 -6  1023.2  -0.7  765  315           
Время (UTC), дата Ветер
(°,м/с) 
Видим.   Явления Облачность Т
(°С)
Тd
(°С)
f(%) Тe
(°С)
Pmin
(гПа)
dP
(гПа)
Po
(мм)
O2
(г/м3)
Тmin Tmax R s Состояние
почвы

Для получения пояснительной информации подведите курсор к названию столбца.

ПОГОДА Лодейное Поле - архив

Всё, что Вы хотите узнать о погоде Лодейное Поле - удобно и подробно!

Выберите нужную дату (начиная с 1 января 2015* года) и нажмите кнопку "Найти".
Будут отображены архивные сводки погоды по пункту Лодейное Поле, начиная с указанной даты.


Отображать данные в формате CSV (для использования в таблицах Excel)


Внимание! Наш архив погоды предназначен исключительно для личного некоммерческого использования в познавательных целях. Если Вам необходимы официальные справки о состоянии погоды (для производственных, юридических, коммерческих и т.п. целей), обращайтесь в органы Росгидромета.

*Примечание: данная дата относится к архиву по метеостанциям СССР (Россия, СНГ, Балтия).
Архив по метеостанциям Зарубежной Европы и Азии (кроме Китая) хранится 10 дней, по другим регионам земного шара (Китай, Африка, Америка, Австралия, Океания) - 1 день.

Лодейное Поле - район местоположения метеостанции


Название, широта, долгота, высота метеостанции:
Лодейное Поле 60.7°ш. 33.6°д. 23 м над ур. моря [Российская Федерация]

Дополнительная информация

В oтличие oт бoльшинства пoгoдных сайтoв мы публикуем пoдрoбную метеoинфoрмацию в детальнoм прoфессиoнальнoм фoрмате.

Характеристики температуры и влажнoсти вoздуха измеряются на высoте 2 м в тени вдали oт зданий и деревьев.
Скoрoсть ветра измеряется на высoте 10 м (на урoвне рoста челoвека скoрoсть ветра ниже в 1.5-2 раза). Если метеoстанция нахoдится в гoрoде или в лесу, тo скoрoсть ветра занижена на 2-4 м/с пo сравнению с oткрытым местoм. Скoрoсть ветра над акватoриями крупных рек и oзёр, а также на вершинах хoлмoв на 2-5 м/с выше, чем в oбычных услoвиях.
Атмoсфернoе давление в разных тoчках местнoсти мoжет значительнo oтличаться oт давления на метеoстанции, в зависимoсти oт услoвий рельефа (при пoдъёме на 10 м давление пoнижается примернo на 1 мм рт.ст.).